Location: Unspecified
(0.0000°N, 0.0000°E)
Time: 12:58:17
(UTC+00:00)

ADRAS-J - Pass Details

Date: 23 May 2025
Orbit: 544 x 592 km, 98.2° (Epoch: 16 June)

Event Time Altitude Azimuth Distance (km) Brightness Sun altitude
Rises 05:01:10 0° 16° (NNE) 2,806 ? -13.0°
Reaches altitude 10° 05:03:19 10° 19° (NNE) 1,912 ? -12.5°
Maximum altitude 05:07:27 68° 101° (ESE) 638 ? -11.5°
Drops below altitude 10° 05:11:36 10° 185° (S) 1,923 ? -10.6°
Sets 05:13:46 0° 187° (S) 2,825 ? -10.1°
